Location: Sternwarte_Laufen
(47.9344°N, 12.9346°E)
Time: 04:37:42
(UTC+02:00)

Amateur Radio Satellites - All Passes

Search period start: 28 July 2017 04:07
Search period end: 29 July 2017 04:07
Location: Sternwarte_Laufen, 47.9344°N, 12.9346°E

Satellite Date Start Highest point End Downlink Frequencies (MHz)
Time Altitude Azimuth
RS-15 28 Jul 04:13:25 04:15:26 11° 271° (W) 04:17:26 29.354- 29.394
ITUPSAT 1 28 Jul 04:14:15 04:18:28 31° 264° (W) 04:22:43 437.325
ITAMSAT 1 28 Jul 04:22:31 04:27:31 44° 99° (E) 04:32:27 435.822/435.867
AO-7 28 Jul 04:33:01 04:41:14 55° 102° (ESE) 04:49:21 .
MOZHAYETS 4 28 Jul 04:33:45 04:37:34 26° 266° (W) 04:41:23
YUBILEINY 28 Jul 04:41:29 04:48:59 30° 62° (ENE) 04:56:24 435.215
KKS-1 28 Jul 04:51:43 04:56:10 67° 72° (ENE) 05:00:38 437.445
Gurwin Techsat 1B 28 Jul 04:55:03 04:58:34 18° 304° (WNW) 05:02:05 435.225
STARS 28 Jul 05:13:02 05:17:18 49° 70° (ENE) 05:21:35 437.465
CUBESAT XI-V 28 Jul 05:15:36 05:19:58 44° 261° (W) 05:24:25 437.345
DOVE 4 28 Jul 05:24:09 05:27:18 16° 86° (E) 05:30:21 437.250
SO-50 28 Jul 05:43:18 05:47:04 26° 116° (ESE) 05:50:49 436.795
PCSat 28 Jul 05:45:24 05:50:49 74° 306° (NW) 05:56:17 145.827
ITAMSAT 1 28 Jul 06:02:20 06:06:48 29° 298° (WNW) 06:11:14 435.822/435.867
STRAND 1 28 Jul 06:04:44 06:07:56 17° 56° (ENE) 06:11:08 437.568
LilacSat-2 28 Jul 06:17:11 06:19:25 15° 90° (E) 06:21:39 437.200
XW-2F 28 Jul 06:25:20 06:27:46 16° 91° (E) 06:30:11 145.980 - 146.000
AO-7 28 Jul 06:26:07 06:33:49 43° 303° (WNW) 06:41:29 .
KKS-1 28 Jul 06:30:36 06:33:11 15° 270° (W) 06:35:46 437.445
CUTE-I 28 Jul 06:32:26 06:36:34 22° 91° (E) 06:40:40 437.470
YUBILEINY 28 Jul 06:37:56 06:46:40 73° 265° (W) 06:55:19 435.215
STARS 28 Jul 06:50:37 06:53:54 20° 268° (W) 06:57:11 437.465
XW-2D 28 Jul 06:55:33 06:59:05 37° 98° (E) 07:02:37 145.860 - 145.880
DOVE 4 28 Jul 07:00:19 07:05:38 80° 285° (WNW) 07:10:42 437.250
XW-2B 28 Jul 07:05:38 07:09:18 47° 100° (E) 07:12:57 145.730 - 145.750
FO-29 28 Jul 07:08:52 07:11:52 13° 42° (NE) 07:14:49 435.910
NUDT-PHONESAT 28 Jul 07:18:14 07:21:49 49° 100° (E) 07:25:25 437.300
CUTE 1.7 + AOD 2 28 Jul 07:18:55 07:21:06 14° 89° (E) 07:23:18 437.475
SO-50 28 Jul 07:22:54 07:27:18 48° 315° (NW) 07:31:42 436.795
XW-2C 28 Jul 07:23:06 07:26:52 77° 102° (ESE) 07:30:39 145.795 - 145.815
SEEDS 28 Jul 07:26:35 07:27:01 10° 86° (E) 07:27:27 437.485
PCSat 28 Jul 07:31:12 07:35:09 20° 328° (NNW) 07:39:08 145.827
KAITUO 1B 28 Jul 07:37:16 07:41:00 87° 103° (ESE) 07:44:45 145.475/437.950
STRAND 1 28 Jul 07:41:18 07:46:27 85° 255° (WSW) 07:51:38 437.568
XW-2A 28 Jul 07:47:56 07:49:29 13° 91° (E) 07:51:03 145.665 - 145.685
LilacSat-2 28 Jul 07:50:18 07:53:58 48° 288° (WNW) 07:57:38 437.200
XW-2F 28 Jul 07:58:32 08:02:06 43° 289° (WNW) 08:05:41 145.980 - 146.000
AAUSAT CUBESAT 2 28 Jul 07:59:54 08:01:02 11° 87° (E) 08:02:11 437.432
HO-68 28 Jul 08:06:04 08:12:53 45° 98° (E) 08:19:41 435.675
CUTE-I 28 Jul 08:11:44 08:17:01 59° 290° (WNW) 08:22:15 437.470
AO-7 28 Jul 08:20:44 08:24:25 14° 327° (NNW) 08:28:07 .
UWE-3 28 Jul 08:21:50 08:24:49 19° 91° (E) 08:27:45 435.000/436.395/437.385
ZACube-1 28 Jul 08:29:10 08:31:00 13° 88° (E) 08:32:50 437.345
XW-2D 28 Jul 08:30:17 08:33:03 20° 295° (WNW) 08:35:49 145.860 - 145.880
YUBILEINY 28 Jul 08:36:56 08:41:50 17° 288° (WNW) 08:46:44 435.215
DOVE 4 28 Jul 08:39:40 08:42:25 14° 305° (NW) 08:45:07 437.250
XW-2B 28 Jul 08:40:44 08:43:09 16° 297° (WNW) 08:45:34 145.730 - 145.750
FO-29 28 Jul 08:47:45 08:55:00 44° 63° (ENE) 09:02:16 435.910
Oscar 11 28 Jul 08:48:59 08:51:29 15° 89° (E) 08:53:58 .
CUTE 1.7 + AOD 2 28 Jul 08:53:09 08:57:23 66° 286° (WNW) 09:01:36 437.475
NUDT-PHONESAT 28 Jul 08:53:11 08:55:21 15° 297° (WNW) 08:57:31 437.300
UNISAT 6 28 Jul 08:58:57 09:02:18 20° 62° (ENE) 09:05:36 437.425
SEEDS 28 Jul 08:59:04 09:03:18 88° 291° (WNW) 09:07:33 437.485
XW-2C 28 Jul 08:59:23 09:00:30 11° 300° (WNW) 09:01:37 145.795 - 145.815
AO-73 28 Jul 09:06:04 09:09:36 27° 94° (E) 09:13:08 145.935
CUBEBUG 2 28 Jul 09:06:10 09:10:27 89° 102° (ESE) 09:14:37 437.445
SO-50 28 Jul 09:06:17 09:08:49 15° 337° (NNW) 09:11:21 436.795
XW-2A 28 Jul 09:19:17 09:22:28 43° 288° (WNW) 09:25:39 145.665 - 145.685
STRAND 1 28 Jul 09:24:21 09:26:25 12° 274° (W) 09:28:29 437.568
PRISM 28 Jul 09:31:39 09:35:17 31° 66° (ENE) 09:38:57 437.425
AAUSAT CUBESAT 2 28 Jul 09:32:51 09:37:03 81° 283° (WNW) 09:41:14 437.432
TIGRISAT 28 Jul 09:40:59 09:45:21 44° 70° (ENE) 09:49:39 435.000
HO-68 28 Jul 09:53:57 10:00:36 44° 299° (WNW) 10:07:15 435.675
CUTE-I 28 Jul 09:54:26 09:55:59 11° 310° (NW) 09:57:32 437.470
UWE-3 28 Jul 09:57:31 10:01:32 45° 289° (WNW) 10:05:28 435.000/436.395/437.385
ZACube-1 28 Jul 10:03:39 10:07:47 68° 287° (WNW) 10:11:53 437.345
DELFI C3 28 Jul 10:05:51 10:09:07 23° 94° (E) 10:12:22 145.870
M-CUBED/EXP-1 PRIME 28 Jul 10:07:51 10:11:31 48° 65° (ENE) 10:15:32 437.505
Oscar 11 28 Jul 10:23:45 10:28:02 62° 287° (WNW) 10:32:18 .
FO-29 28 Jul 10:32:23 10:39:52 51° 263° (W) 10:47:29 435.910
QB50P2 28 Jul 10:33:26 10:35:26 13° 58° (ENE) 10:37:27 145.880/145.840
UNISAT 6 28 Jul 10:34:08 10:38:39 54° 260° (W) 10:43:07 437.425
SEEDS 28 Jul 10:36:55 10:38:19 11° 302° (WNW) 10:39:43 437.485
NANOSAT C BR1 28 Jul 10:42:02 10:44:04 13° 58° (ENE) 10:46:05 145.865
AO-73 28 Jul 10:42:12 10:45:52 31° 292° (WNW) 10:49:30 145.935
EO-79 28 Jul 10:43:44 10:46:11 15° 60° (ENE) 10:48:37 145.935-145.965
CUBEBUG 2 28 Jul 10:44:52 10:46:23 12° 303° (WNW) 10:47:54 437.445
AIST 2D 28 Jul 10:48:31 10:51:25 25° 68° (ENE) 10:54:21 435.315
NO-84 28 Jul 11:00:42 11:03:36 47° 141° (SE) 11:06:45 435.350 FM
PCSat 28 Jul 11:04:10 11:06:51 14° 21° (NNE) 11:09:31 145.827
PRISM 28 Jul 11:07:01 11:10:33 27° 264° (W) 11:14:08 437.425
AAUSAT CUBESAT 2 28 Jul 11:11:01 11:11:46 10° 303° (WNW) 11:12:32 437.432
LO-87 28 Jul 11:12:45 11:14:00 11° 89° (E) 11:15:15 145.935 - 145.965
EO-88 28 Jul 11:17:38 11:21:18 86° 281° (WNW) 11:24:57 145.990 - 145.960
TIGRISAT 28 Jul 11:18:32 11:22:12 23° 267° (W) 11:25:51 435.000
DELFI C3 28 Jul 11:40:18 11:43:57 34° 291° (WNW) 11:47:34 145.870
BEESAT 3 28 Jul 11:41:13 11:43:54 17° 113° (ESE) 11:46:35 437.485
M-CUBED/EXP-1 PRIME 28 Jul 11:43:43 11:46:18 17° 265° (W) 11:49:01 437.505
HO-68 28 Jul 11:44:25 11:46:33 11° 321° (NW) 11:48:41 435.675
DUCHIFAT 1 28 Jul 11:45:38 11:49:41 46° 70° (ENE) 11:53:44 145.980
POLYITAN 1 28 Jul 11:53:06 11:57:21 68° 73° (ENE) 12:01:35 437.675
ESTCUBE 1 28 Jul 12:00:37 12:04:31 28° 94° (E) 12:08:24 437.505/2401.250
BUGSAT 1 28 Jul 12:01:39 12:04:58 23° 64° (ENE) 12:08:16 437.445
QB50P2 28 Jul 12:06:21 12:10:38 81° 258° (WSW) 12:14:55 145.880/145.840
Oscar 19 28 Jul 12:08:07 12:11:15 17° 56° (NE) 12:14:22 437.125/150
NANOSAT C BR1 28 Jul 12:14:55 12:19:11 80° 259° (WSW) 12:23:27 145.865
EO-79 28 Jul 12:17:12 12:21:26 69° 258° (WSW) 12:25:42 145.935-145.965
AIST 2D 28 Jul 12:21:46 12:24:36 23° 265° (W) 12:27:27 435.315
FO-29 28 Jul 12:26:37 12:26:41 10° 283° (WNW) 12:26:46 435.910
BEESAT 2 28 Jul 12:28:41 12:31:30 19° 113° (ESE) 12:34:21 435.950
SO-50 28 Jul 12:30:36 12:33:36 17° 27° (NNE) 12:36:38 436.795
VELOX 1 28 Jul 12:32:30 12:34:52 14° 89° (E) 12:37:12 145.980
NO-84 28 Jul 12:38:11 12:41:09 35° 342° (NNW) 12:44:21 435.350 FM
LO-87 28 Jul 12:44:16 12:47:49 58° 287° (WNW) 12:51:20 145.935 - 145.965
PCSat 28 Jul 12:46:44 12:51:50 39° 45° (NE) 12:56:54 145.827
AO-85 28 Jul 12:55:03 12:59:01 83° 127° (SE) 13:02:58 145.980
SPROUT 28 Jul 12:56:20 13:00:00 27° 95° (E) 13:03:37 437.525
Gurwin Techsat 1B 28 Jul 12:59:43 13:04:15 29° 62° (ENE) 13:08:47 435.225
50 SAT 28 Jul 13:16:34 13:18:21 13° 91° (E) 13:20:07 437.505
BEESAT 3 28 Jul 13:17:06 13:21:04 59° 312° (NW) 13:25:04 437.485
DUCHIFAT 1 28 Jul 13:22:30 13:25:35 19° 268° (W) 13:28:40 145.980
POLYITAN 1 28 Jul 13:31:26 13:33:35 13° 271° (W) 13:35:43 437.675
BUGSAT 1 28 Jul 13:36:06 13:40:07 41° 262° (W) 13:44:07 437.445
ESTCUBE 1 28 Jul 13:37:14 13:41:23 36° 293° (WNW) 13:45:31 437.505/2401.250
Oscar 19 28 Jul 13:44:46 13:49:54 86° 256° (WSW) 13:55:04 437.125/150
AO-7 28 Jul 13:45:15 13:52:00 28° 49° (NE) 13:58:46 .
DX 1 28 Jul 14:01:41 14:05:43 34° 97° (E) 14:09:41 434.975-435.025
BEESAT 2 28 Jul 14:04:55 14:08:53 56° 312° (NW) 14:12:54 435.950
ITAMSAT 1 28 Jul 14:06:59 14:10:16 17° 56° (NE) 14:13:33 435.822/435.867
VELOX 1 28 Jul 14:07:20 14:11:48 71° 287° (WNW) 14:16:14 145.980
O/OREOS (USA 219) 28 Jul 14:07:48 14:10:06 14° 99° (E) 14:12:23 437.305
SO-50 28 Jul 14:10:23 14:14:55 66° 49° (NE) 14:19:27 436.795
RS-15 28 Jul 14:12:45 14:21:23 23° 98° (E) 14:30:03 29.354- 29.394
NO-84 28 Jul 14:16:24 14:19:16 25° 4° (N) 14:22:21 435.350 FM
PCSat 28 Jul 14:30:11 14:35:18 43° 245° (WSW) 14:40:22 145.827
SPROUT 28 Jul 14:32:05 14:35:56 33° 292° (WNW) 14:39:44 437.525
UKube-1 28 Jul 14:36:54 14:41:10 51° 101° (E) 14:45:22 .
AO-85 28 Jul 14:37:13 14:39:55 18° 328° (NNW) 14:42:39 145.980
Gurwin Techsat 1B 28 Jul 14:38:54 14:43:59 47° 261° (W) 14:49:08 435.225
50 SAT 28 Jul 14:48:01 14:51:19 44° 289° (WNW) 14:54:36 437.505
BEESAT 3 28 Jul 14:57:15 14:59:27 14° 332° (NNW) 15:01:41 437.485
Oscar 19 28 Jul 15:27:56 15:30:00 12° 274° (W) 15:32:05 437.125/150
AO-7 28 Jul 15:35:30 15:43:54 87° 251° (WSW) 15:52:21 .
DX 1 28 Jul 15:38:01 15:41:48 29° 295° (WNW) 15:45:33 434.975-435.025
ITAMSAT 1 28 Jul 15:43:49 15:49:04 86° 255° (WSW) 15:54:20 435.822/435.867
O/OREOS (USA 219) 28 Jul 15:44:26 15:48:53 73° 297° (WNW) 15:53:23 437.305
BEESAT 2 28 Jul 15:45:23 15:47:31 14° 333° (NNW) 15:49:39 435.950
VELOX 1 28 Jul 15:46:38 15:47:26 10° 306° (NW) 15:48:14 145.980
SO-50 28 Jul 15:51:44 15:54:56 19° 247° (WSW) 15:58:09 436.795
NO-84 28 Jul 15:53:52 15:57:20 46° 24° (NNE) 16:01:05 435.350 FM
BEESAT 28 Jul 15:54:46 15:59:12 37° 98° (E) 16:03:36 436.000
ITUPSAT 1 28 Jul 16:10:19 16:14:59 51° 100° (E) 16:19:36 437.325
UKube-1 28 Jul 16:13:42 16:16:50 20° 299° (WNW) 16:19:57 .
RS-15 28 Jul 16:19:38 16:31:50 77° 122° (ESE) 16:44:10 29.354- 29.394
MOZHAYETS 4 28 Jul 16:24:01 16:28:32 57° 100° (E) 16:33:02
DOVE 4 28 Jul 16:32:12 16:36:10 23° 61° (ENE) 16:40:15 437.250
HO-68 28 Jul 16:55:58 16:58:51 13° 41° (NE) 17:01:43 435.675
LilacSat-2 28 Jul 17:03:04 17:04:56 13° 61° (ENE) 17:06:47 437.200
CUBESAT XI-V 28 Jul 17:08:16 17:12:34 35° 96° (E) 17:16:51 437.345
XW-2F 28 Jul 17:10:09 17:12:10 14° 62° (ENE) 17:14:09 145.980 - 146.000
ITAMSAT 1 28 Jul 17:27:00 17:29:19 13° 273° (W) 17:31:37 435.822/435.867
O/OREOS (USA 219) 28 Jul 17:27:07 17:29:09 13° 318° (NW) 17:31:12 437.305
NO-84 28 Jul 17:31:17 17:34:48 40° 221° (SW) 17:38:35 435.350 FM
AO-7 28 Jul 17:31:51 17:37:49 21° 271° (W) 17:43:50 .
BEESAT 28 Jul 17:32:45 17:36:52 30° 296° (WNW) 17:40:58 436.000
XW-2D 28 Jul 17:40:03 17:43:21 30° 69° (ENE) 17:46:40 145.860 - 145.880
YUBILEINY 28 Jul 17:48:04 17:55:13 29° 80° (E) 18:02:21 435.215
ITUPSAT 1 28 Jul 17:48:47 17:52:30 23° 299° (WNW) 17:56:11 437.325
XW-2B 28 Jul 17:50:02 17:53:30 37° 70° (ENE) 17:56:59 145.730 - 145.750
CUTE-I 28 Jul 17:57:16 18:02:26 50° 68° (ENE) 18:07:38 437.470
NUDT-PHONESAT 28 Jul 18:00:34 18:03:57 36° 70° (ENE) 18:07:22 437.300
MOZHAYETS 4 28 Jul 18:02:03 18:05:18 20° 299° (WNW) 18:08:34
XW-2C 28 Jul 18:07:19 18:11:01 59° 73° (ENE) 18:14:43 145.795 - 145.815
DOVE 4 28 Jul 18:08:28 18:13:25 58° 261° (W) 18:18:36 437.250
CUTE 1.7 + AOD 2 28 Jul 18:14:57 18:17:32 16° 61° (ENE) 18:20:07 437.475
KKS-1 28 Jul 18:15:26 18:19:57 82° 104° (ESE) 18:24:25 437.445
BEESAT 3 28 Jul 18:17:30 18:18:21 11° 21° (NNE) 18:19:14 437.485
KAITUO 1B 28 Jul 18:20:10 18:23:49 64° 74° (ENE) 18:27:29 145.475/437.950
SEEDS 28 Jul 18:21:02 18:22:43 12° 58° (ENE) 18:24:25 437.485
CUBEBUG 2 28 Jul 18:32:42 18:35:23 16° 60° (ENE) 18:38:02 437.445
RS-15 28 Jul 18:33:37 18:45:27 49° 329° (NNW) 18:57:16 29.354- 29.394
STARS 28 Jul 18:34:49 18:39:11 57° 101° (E) 18:43:29 437.465
LilacSat-2 28 Jul 18:35:01 18:38:45 61° 259° (W) 18:42:30 437.200
HO-68 28 Jul 18:38:07 18:44:56 48° 63° (ENE) 18:51:44 435.675
XW-2F 28 Jul 18:42:13 18:45:52 55° 260° (W) 18:49:33 145.980 - 146.000
CUBESAT XI-V 28 Jul 18:45:45 18:49:52 31° 294° (WNW) 18:53:58 437.345
AAUSAT CUBESAT 2 28 Jul 18:53:17 18:55:04 13° 59° (ENE) 18:56:50 437.432
BEESAT 2 28 Jul 19:05:31 19:06:47 11° 22° (NNE) 19:08:03 435.950
XW-2D 28 Jul 19:14:33 19:17:34 23° 266° (W) 19:20:36 145.860 - 145.880
UWE-3 28 Jul 19:21:38 19:25:20 26° 65° (ENE) 19:28:58 435.000/436.395/437.385
XW-2B 28 Jul 19:25:08 19:27:50 19° 268° (W) 19:30:32 145.730 - 145.750
ZACube-1 28 Jul 19:27:49 19:30:42 18° 62° (ENE) 19:33:33 437.345
NUDT-PHONESAT 28 Jul 19:35:24 19:37:59 18° 268° (W) 19:40:36 437.300
CUTE-I 28 Jul 19:38:15 19:42:43 27° 267° (W) 19:47:15 437.470
nSIGHT-1 28 Jul 19:42:16 19:44:23 16° 138° (SE) 19:46:31 .
AO-85 28 Jul 19:42:24 19:46:05 31° 41° (NE) 19:49:58 145.980
YUBILEINY 28 Jul 19:42:24 19:51:14 73° 282° (WNW) 20:00:06 435.215
XW-2C 28 Jul 19:44:05 19:45:35 12° 271° (W) 19:47:06 145.795 - 145.815
Oscar 11 28 Jul 19:47:01 19:50:00 19° 62° (ENE) 19:53:00 .
STRAND 1 28 Jul 19:48:45 19:52:58 25° 93° (E) 19:57:09 437.568
CUTE 1.7 + AOD 2 28 Jul 19:48:46 19:52:54 61° 259° (WSW) 19:57:06 437.475
XW-2A 28 Jul 19:53:11 19:56:34 81° 256° (WSW) 19:59:57 145.665 - 145.685
BEESAT 3 28 Jul 19:53:22 19:57:06 35° 43° (NE) 20:00:46 437.485
KKS-1 28 Jul 19:53:32 19:55:53 14° 303° (WNW) 19:58:14 437.445
SEEDS 28 Jul 19:53:37 19:57:47 84° 258° (WSW) 20:01:59 437.485
KAITUO 1B 28 Jul 19:57:15 19:58:14 11° 272° (W) 19:59:14 145.475/437.950
AO-73 28 Jul 20:04:28 20:08:23 33° 68° (ENE) 20:12:14 145.935
CUBEBUG 2 28 Jul 20:06:49 20:11:28 76° 257° (WSW) 20:16:01 437.445
Tancredo 1 28 Jul 20:07:41 20:10:33 55° 151° (SSE) 20:13:27 437.200
STARS 28 Jul 20:12:04 20:15:07 19° 300° (WNW) 20:18:10 437.465
AAUSAT CUBESAT 2 28 Jul 20:25:48 20:29:54 80° 256° (WSW) 20:34:05 437.432
HO-68 28 Jul 20:26:06 20:32:46 40° 263° (W) 20:39:29 435.675
ISS 28 Jul 20:38:44 20:41:51 43° 148° (SSE) 20:44:58 437.550
BEESAT 2 28 Jul 20:41:49 20:45:39 38° 44° (NE) 20:49:27 435.950
RS-15 28 Jul 20:50:37 21:01:42 36° 3° (N) 21:12:29 29.354- 29.394
DELFI C3 28 Jul 20:54:35 20:57:40 22° 65° (ENE) 21:00:46 145.870
UWE-3 28 Jul 20:57:23 21:01:37 39° 262° (W) 21:05:47 435.000/436.395/437.385
ZACube-1 28 Jul 21:02:15 21:06:36 59° 259° (W) 21:10:51 437.345
nSIGHT-1 28 Jul 21:17:09 21:20:23 84° 157° (SSE) 21:23:37 .
Oscar 11 28 Jul 21:21:34 21:25:46 53° 260° (W) 21:30:00 .
AO-85 28 Jul 21:22:37 21:26:34 41° 239° (WSW) 21:30:46 145.980
STRAND 1 28 Jul 21:27:28 21:32:23 48° 292° (WNW) 21:37:16 437.568
BEESAT 3 28 Jul 21:31:03 21:34:37 31° 242° (WSW) 21:38:07 437.485
FO-29 28 Jul 21:39:44 21:45:23 25° 88° (E) 21:50:29 435.910
AO-73 28 Jul 21:40:55 21:44:39 27° 265° (W) 21:48:19 145.935
Tancredo 1 28 Jul 21:43:11 21:46:01 43° 350° (N) 21:48:52 437.200
YUBILEINY 28 Jul 21:43:58 21:49:53 19° 307° (NW) 21:55:47 435.215
EO-88 28 Jul 21:58:15 22:01:50 66° 74° (ENE) 22:05:27 145.990 - 145.960
ISS 28 Jul 22:15:07 22:18:18 52° 346° (NNW) 22:21:30 437.550
BEESAT 2 28 Jul 22:19:47 22:23:19 29° 243° (WSW) 22:26:48 435.950
UNISAT 6 28 Jul 22:22:44 22:26:12 23° 93° (E) 22:29:38 437.425
DELFI C3 28 Jul 22:28:35 22:32:14 36° 263° (W) 22:35:57 145.870
PRISM 28 Jul 22:44:12 22:47:54 30° 96° (E) 22:51:35 437.425
nSIGHT-1 28 Jul 22:53:53 22:56:59 42° 355° (N) 23:00:06 .
ESTCUBE 1 28 Jul 23:03:12 23:07:20 38° 68° (ENE) 23:11:31 437.505/2401.250
TIGRISAT 28 Jul 23:05:19 23:09:36 57° 101° (E) 23:13:46 435.000
RS-15 28 Jul 23:05:35 23:17:36 54° 35° (NE) 23:29:02 29.354- 29.394
M-CUBED/EXP-1 PRIME 28 Jul 23:17:01 23:20:48 24° 99° (E) 23:24:35 437.505
Tancredo 1 28 Jul 23:18:54 23:21:44 43° 10° (N) 23:24:34 437.200
LO-87 28 Jul 23:22:58 23:26:37 88° 265° (W) 23:30:17 145.935 - 145.965
FO-29 28 Jul 23:24:02 23:31:08 67° 290° (WNW) 23:37:21 435.910
VELOX 1 28 Jul 23:32:38 23:35:53 20° 61° (ENE) 23:39:09 145.980
EO-88 28 Jul 23:35:21 23:35:56 10° 272° (W) 23:36:32 145.990 - 145.960
AIST 2D 28 Jul 23:43:03 23:45:39 19° 93° (E) 23:48:14 435.315
QB50P2 28 Jul 23:49:21 23:51:16 13° 88° (E) 23:53:11 145.880/145.840
ISS 28 Jul 23:52:00 23:55:08 43° 7° (N) 23:58:17 437.550
SPROUT 28 Jul 23:52:40 23:56:30 32° 67° (ENE) 00:00:21 437.525
NANOSAT C BR1 28 Jul 23:57:21 23:59:15 13° 88° (E) 00:01:08 145.865
UNISAT 6 28 Jul 23:59:03 00:03:04 38° 291° (WNW) 00:07:01 437.425
EO-79 28 Jul 23:59:30 00:01:57 15° 90° (E) 00:04:23 145.935-145.965
O/OREOS (USA 219) 29 Jul 00:11:44 00:16:07 50° 59° (ENE) 00:20:30 437.305
PRISM 29 Jul 00:19:30 00:23:07 29° 294° (WNW) 00:26:44 437.425
nSIGHT-1 29 Jul 00:30:33 00:33:44 55° 15° (NNE) 00:36:55 .
ESTCUBE 1 29 Jul 00:40:31 00:44:15 26° 266° (W) 00:48:00 437.505/2401.250
TIGRISAT 29 Jul 00:43:01 00:45:52 17° 299° (WNW) 00:48:40 435.000
M-CUBED/EXP-1 PRIME 29 Jul 00:50:54 00:55:22 48° 296° (WNW) 00:59:50 437.505
Tancredo 1 29 Jul 00:54:18 00:57:12 56° 209° (SSW) 01:00:05 437.200
DX 1 29 Jul 01:00:09 01:04:19 46° 70° (ENE) 01:08:32 434.975-435.025
DUCHIFAT 1 29 Jul 01:01:24 01:05:30 51° 100° (E) 01:09:33 145.980
VELOX 1 29 Jul 01:07:40 01:11:59 52° 260° (W) 01:16:22 145.980
POLYITAN 1 29 Jul 01:09:58 01:14:12 79° 104° (ESE) 01:18:23 437.675
FO-29 29 Jul 01:10:34 01:14:45 17° 313° (NW) 01:18:43 435.910
BUGSAT 1 29 Jul 01:14:39 01:17:50 21° 93° (E) 01:20:57 437.445
AIST 2D 29 Jul 01:15:48 01:18:55 31° 290° (WNW) 01:22:02 435.315
RS-15 29 Jul 01:18:41 01:30:34 64° 243° (WSW) 01:41:49 29.354- 29.394
50 SAT 29 Jul 01:22:03 01:25:27 74° 259° (WSW) 01:28:53 437.505
QB50P2 29 Jul 01:23:20 01:27:33 70° 287° (WNW) 01:31:43 145.880/145.840
ISS 29 Jul 01:28:31 01:31:47 75° 206° (SSW) 01:35:02 437.550
SPROUT 29 Jul 01:28:42 01:32:24 28° 265° (W) 01:36:08 437.525
BEESAT 29 Jul 01:31:07 01:32:04 11° 53° (NE) 01:33:00 436.000
NANOSAT C BR1 29 Jul 01:31:15 01:35:27 70° 287° (WNW) 01:39:36 145.865
EO-79 29 Jul 01:33:57 01:38:06 59° 288° (WNW) 01:42:13 145.935-145.965
UKube-1 29 Jul 01:34:16 01:38:33 68° 72° (ENE) 01:42:52 .
ITUPSAT 1 29 Jul 01:45:25 01:47:52 14° 56° (NE) 01:50:17 437.325
O/OREOS (USA 219) 29 Jul 01:51:52 01:55:11 20° 258° (WSW) 01:58:30 437.305
Oscar 19 29 Jul 01:53:09 01:57:27 26° 93° (E) 02:01:44 437.125/150
MOZHAYETS 4 29 Jul 01:55:25 01:57:06 12° 56° (NE) 01:58:47
nSIGHT-1 29 Jul 02:07:03 02:10:04 38° 214° (SW) 02:13:05 .
DX 1 29 Jul 02:37:26 02:40:44 21° 267° (W) 02:44:04 434.975-435.025
DUCHIFAT 1 29 Jul 02:37:54 02:40:48 19° 298° (WNW) 02:43:42 145.980
POLYITAN 1 29 Jul 02:47:24 02:49:24 13° 302° (WNW) 02:51:23 437.675
BUGSAT 1 29 Jul 02:49:31 02:53:20 38° 291° (WNW) 02:57:05 437.445
Gurwin Techsat 1B 29 Jul 02:51:10 02:56:24 53° 100° (E) 03:01:35 435.225
BEESAT 29 Jul 03:04:12 03:08:55 65° 72° (ENE) 03:13:40 436.000
ISS 29 Jul 03:05:56 03:07:48 14° 224° (SW) 03:09:40 437.550
UKube-1 29 Jul 03:12:48 03:15:03 14° 271° (W) 03:17:18 .
ITUPSAT 1 29 Jul 03:20:11 03:24:59 88° 75° (ENE) 03:29:47 437.325
MOZHAYETS 4 29 Jul 03:28:56 03:33:30 80° 73° (ENE) 03:38:05
Oscar 19 29 Jul 03:32:02 03:37:00 48° 292° (WNW) 03:41:58 437.125/150
AO-7 29 Jul 03:33:58 03:40:37 25° 91° (E) 03:47:12 .
RS-15 29 Jul 03:34:02 03:40:17 16° 267° (W) 03:46:25 29.354- 29.394
PCSat 29 Jul 03:34:29 03:37:21 15° 104° (ESE) 03:40:13 145.827
KKS-1 29 Jul 03:42:12 03:44:55 16° 59° (ENE) 03:47:39 437.445
YUBILEINY 29 Jul 03:52:42 03:58:22 18° 52° (NE) 04:03:58 435.215
ITAMSAT 1 29 Jul 03:53:38 03:57:56 25° 93° (E) 04:02:11 435.822/435.867
STARS 29 Jul 04:01:44 04:03:08 11° 55° (NE) 04:04:32 437.465
